EW8903 Weather Reports


Display with metric or nautical units.
time (UTC)temp
F
wind
direction
speed
MPH
gust
MPH
rain 1hr
in
rain 24hr
in
rain mn
in
humidity
%
barometer
mb
20260509043101 51 250 2.0 3.0 0.00 0.00 0.00 47 1004.6
20260509041553 52 250 2.0 4.0 0.00 0.00 0.00 46 1004.8
20260509040049 52 250 2.0 5.0 0.00 0.00 0.00 46 1005.1
20260509034553 52 257 2.0 3.0 0.00 0.00 0.00 46 1005.1
20260509033053 53 259 2.0 4.0 0.00 0.00 0.00 46 1005.2
20260509031547 53 258 2.0 3.0 0.00 0.00 0.00 46 1005.4
20260509030021 53 259 1.0 4.0 0.00 0.00 0.00 46 1005.4
20260509024516 53 259 2.0 3.0 0.00 0.00 0.00 46 1005.5
20260509023014 54 259 1.0 3.0 0.00 0.00 0.00 46 1005.6
20260509021515 55 258 2.0 4.0 0.00 0.00 0.00 42 1005.6
20260509020013 55 259 2.0 3.0 0.00 0.00 0.00 44 1005.5
20260509014515 56 258 1.0 2.0 0.00 0.00 0.00 39 1005.5
20260509013012 57 259 1.0 3.0 0.00 0.00 0.00 37 1005.4
20260509011510 57 259 2.0 4.0 0.00 0.00 0.00 38 1005.2
20260509010009 58 259 1.0 3.0 0.00 0.00 0.00 36 1005.2
20260509004508 59 259 1.0 5.0 0.00 0.00 0.00 35 1005.2
20260509003008 60 259 3.0 5.0 0.00 0.00 0.00 32 1005.1
20260509001548 61 257 3.0 5.0 0.00 0.00 0.00 31 1005.0
20260509000036 62 259 3.0 7.0 0.00 0.00 0.00 31 1004.9
20260508234506 62 262 4.0 10.0 0.00 0.00 0.00 29 1005.0
20260508233004 62 259 3.0 8.0 0.00 0.00 0.00 30 1005.0
20260508231535 63 260 6.0 11.0 0.00 0.00 0.00 29 1005.0
20260508230032 63 247 9.0 14.0 0.00 0.00 0.00 29 1005.0
20260508224535 63 246 7.0 13.0 0.00 0.00 0.00 28 1005.1
20260508223042 62 260 3.0 9.0 0.00 0.00 0.00 28 1005.1
20260508221527 63 242 7.0 16.0 0.00 0.00 0.00 28 1005.2
20260508220030 63 250 5.0 13.0 0.00 0.00 0.00 29 1005.2
20260508214547 63 269 6.0 12.0 0.00 0.00 0.00 26 1005.4
20260508213022 64 256 5.0 12.0 0.00 0.00 0.00 28 1005.4
20260508211522 63 258 4.0 14.0 0.00 0.00 0.00 27 1005.4
20260508210020 63 245 3.0 10.0 0.00 0.00 0.00 26 1005.7
20260508204549 62 247 7.0 13.0 0.00 0.00 0.00 28 1005.7
20260508203046 63 251 7.0 13.0 0.00 0.00 0.00 27 1006.0
20260508201514 63 249 4.0 15.0 0.00 0.00 0.00 26 1006.3
20260508200019 63 248 6.0 13.0 0.00 0.00 0.00 28 1006.4
20260508194506 62 239 11.0 16.0 0.00 0.00 0.00 29 1006.6
20260508193004 61 245 8.0 14.0 0.00 0.00 0.00 29 1006.9
20260508191603 60 263 8.0 15.0 0.00 0.00 0.00 30 1007.0
20260508190110 61 262 6.0 12.0 0.00 0.00 0.00 30 1007.2
20260508184558 61 305 5.0 14.0 0.00 0.00 0.00 31 1007.5
20260508183110 60 243 7.0 13.0 0.00 0.00 0.00 31 1007.7
20260508181552 60 260 7.0 13.0 0.00 0.00 0.00 32 1008.0
20260508180059 59 249 11.0 19.0 0.00 0.00 0.00 32 1008.2
20260508174600 60 243 6.0 14.0 0.00 0.00 0.00 32 1008.4
20260508173041 59 235 5.0 14.0 0.00 0.00 0.00 33 1008.7
20260508171538 59 257 3.0 10.0 0.00 0.00 0.00 34 1008.9
20260508170038 58 249 6.0 13.0 0.00 0.00 0.00 35 1009.0
20260508164538 58 256 6.0 16.0 0.00 0.00 0.00 34 1009.3
20260508163032 57 283 4.0 12.0 0.00 0.00 0.00 33 1009.5
20260508161527 57 243 6.0 15.0 0.00 0.00 0.00 39 1009.5
20260508160024 57 260 6.0 11.0 0.00 0.00 0.00 38 1009.6
20260508154519 56 238 5.0 14.0 0.00 0.00 0.00 41 1009.8
20260508153029 55 270 3.0 14.0 0.00 0.00 0.00 41 1010.0
20260508151516 55 260 7.0 12.0 0.00 0.00 0.00 43 1010.0
20260508150012 54 237 4.0 11.0 0.00 0.00 0.00 46 1010.1
20260508144509 53 255 6.0 12.0 0.00 0.00 0.00 48 1010.3
20260508143008 53 245 5.0 11.0 0.00 0.00 0.00 50 1010.3
20260508141509 52 246 8.0 12.0 0.00 0.00 0.00 52 1010.5
20260508140059 51 236 6.0 12.0 0.00 0.00 0.00 53 1010.5
20260508140001 51 232 6.0 12.0 0.00 0.00 0.00 54 1010.5
20260508134527 51 266 6.0 11.0 0.00 0.00 0.00 55 1010.6
20260508133021 50 255 6.0 11.0 0.00 0.00 0.00 57 1010.7
20260508131514 50 233 3.0 6.0 0.00 0.00 0.00 58 1010.9
20260508130024 49 262 2.0 6.0 0.00 0.00 0.00 61 1010.8
20260508124505 48 271 2.0 4.0 0.00 0.00 0.00 64 1010.8
20260508123001 47 276 2.0 6.0 0.00 0.00 0.00 68 1010.9
20260508121608 46 278 3.0 6.0 0.00 0.00 0.00 69 1010.9
20260508120106 46 285 2.0 5.0 0.00 0.00 0.00 69 1010.7
20260508114556 45 286 0.0 5.0 0.00 0.00 0.00 70 1010.4
20260508113043 46 287 1.0 4.0 0.00 0.00 0.00 69 1010.6
20260508111541 45 288 0.0 2.0 0.00 0.00 0.00 72 1010.4
20260508110034 42 288 0.0 2.0 0.00 0.00 0.00 77 1010.5
20260508104530 0 0.0 0.0 0.00 0.00 0.00 1010.5
20260508103032 0 0.0 0.0 0.00 0.00 0.00 1010.5
20260508101519 0 0.0 0.0 0.00 0.00 0.00 1010.7
20260508100012 0 0.0 0.0 0.00 0.00 0.00 1010.6
20260508094508 0 0.0 0.0 0.00 0.00 0.00 1010.6
20260508093007 39 290 1.0 3.0 0.00 0.00 0.00 79 1010.7
20260508091509 40 288 1.0 2.0 0.00 0.00 0.00 78 1010.7
20260508090116 40 288 1.0 3.0 0.00 0.00 0.00 78 1010.8
20260508084600 40 290 2.0 3.0 0.00 0.00 0.00 77 1010.7
20260508083103 40 288 1.0 3.0 0.00 0.00 0.00 77 1010.8
20260508081601 40 288 1.0 3.0 0.00 0.00 0.00 76 1010.8
20260508080052 41 288 2.0 3.0 0.00 0.00 0.00 75 1010.7
20260508074551 41 290 2.0 3.0 0.00 0.00 0.00 73 1010.8
20260508073048 41 288 1.0 3.0 0.00 0.00 0.00 73 1010.9
20260508071548 42 288 1.0 2.0 0.00 0.00 0.00 73 1010.9
20260508070045 42 290 2.0 3.0 0.00 0.00 0.00 73 1011.0
20260508064545 42 288 2.0 3.0 0.00 0.00 0.00 72 1011.1
20260508063057 43 288 1.0 2.0 0.00 0.00 0.00 70 1011.1
20260508061546 43 288 1.0 2.0 0.00 0.00 0.00 68 1011.1
20260508060041 44 288 1.0 3.0 0.00 0.00 0.00 68 1011.1
20260508054540 44 288 1.0 2.0 0.00 0.00 0.00 69 1010.9
20260508053039 44 288 1.0 2.0 0.00 0.00 0.00 68 1010.6
20260508051541 44 288 2.0 4.0 0.00 0.00 0.00 67 1010.9
20260508050037 45 290 2.0 5.0 0.00 0.00 0.00 65 1011.0
20260508044534 45 292 2.0 5.0 0.00 0.00 0.00 65 1011.1